Greenville/Spartanburg, SC

10:31 PM EDT on October 16, 2017 (GMT -0400)
Greenville-Spartanburg International

Weather History for KGSP - January, 2014

Change the Weather History Date:

Tuesday, January 21, 2014

  Actual Average Record
Temperature  
Mean Temperature 43 °F 42 °F  
Max Temperature 59 °F 53 °F 73 °F (1933)
Min Temperature 27 °F 32 °F -4 °F (1985)
Degree Days  
Heating Degree Days 22 23  
Month to date heating degree days 558 483  
Since 1 July heating degree days 1721 1686  
Cooling Degree Days 0 0  
Month to date cooling degree days 0 0  
Year to date cooling degree days 0 0  
Moisture  
Dew Point 24 °F    
Average Humidity 43    
Maximum Humidity 62    
Minimum Humidity 24    
Precipitation  
Precipitation 0.00 in 0.12 in 1.86 in (1993)
Month to date precipitation 3.09 2.60  
Year to date precipitation 3.09 2.60  
Snow  
Snow 0.00 in 0.10 in 2.90 in (1983)
Month to date snowfall 0.0 1.6  
Since 1 July snowfall 0.1 2.1  
Snow Depth 0.00 in    
Sea Level Pressure  
Sea Level Pressure 29.70 in    
Wind  
Wind Speed 10 mph (West)    
Max Wind Speed 21 mph    
Max Gust Speed 33 mph    
Visibility 10 miles    
Events      
T = Trace of Precipitation, MM = Missing Value Source: NWS Daily Summary

Daily Weather History Graph

Daily Weather History Graph

Search for Another Location

Airport or City:

Trip Planner

Search our weather history database for the weather conditions in past years. The results will help you decide how hot, cold, wet, or windy it might be!

Date:

Astronomy

Jan. 21, 2014 Rise Set
Actual Time 7:34 AM EST 5:46 PM EST
Civil Twilight 7:06 AM EST 6:13 PM EST
Nautical Twilight 6:36 AM EST 6:44 PM EST
Astronomical Twilight 6:05 AM EST 7:14 PM EST
Moon 11:03 PM EST (1/21) 10:16 AM EST (1/21)
Length of Visible Light 11h 06m
Length of Day
10h 12m
Waning Gibbous, 75% of the Moon is Illuminated
Jan 21
Waning Gibbous
Jan 24
Last Quarter
Jan 30
New
Feb 6
First Quarter
Feb 14
Full

Hourly Weather History & Observations

Time (EST) Temp. Windchill Dew Point Humidity Pressure Visibility Wind Dir Wind Speed Gust Speed Precip Events Conditions
12:53 AM 46.0 °F 41.9 °F 27.0 °F 47% 29.78 in 10.0 mi SW 8.1 mph - N/A   Clear
1:53 AM 45.0 °F 40.1 °F 27.0 °F 49% 29.75 in 10.0 mi SW 9.2 mph - N/A   Clear
2:53 AM 43.0 °F 37.7 °F 28.0 °F 56% 29.74 in 10.0 mi SW 9.2 mph - N/A   Clear
3:53 AM 42.1 °F 37.1 °F 27.0 °F 55% 29.73 in 10.0 mi SW 8.1 mph - N/A   Clear
4:53 AM 41.0 °F 36.4 °F 27.0 °F 57% 29.70 in 10.0 mi SW 6.9 mph - N/A   Clear
5:53 AM 39.9 °F 35.1 °F 27.0 °F 60% 29.69 in 10.0 mi SW 6.9 mph - N/A   Clear
6:53 AM 39.0 °F 34.0 °F 27.0 °F 62% 29.68 in 8.0 mi SW 6.9 mph - N/A   Clear
7:53 AM 39.0 °F 35.7 °F 27.0 °F 62% 29.65 in 10.0 mi WSW 4.6 mph - N/A   Clear
8:53 AM 42.1 °F 38.4 °F 30.0 °F 62% 29.64 in 10.0 mi WSW 5.8 mph - N/A   Clear
9:53 AM 48.9 °F - 30.9 °F 50% 29.62 in 10.0 mi WSW 10.4 mph - N/A   Scattered Clouds
10:53 AM 53.1 °F - 30.0 °F 41% 29.61 in 10.0 mi West 11.5 mph - N/A   Clear
11:53 AM 57.0 °F - 30.0 °F 36% 29.58 in 10.0 mi West 11.5 mph 19.6 mph N/A   Clear
12:53 PM 55.9 °F - 27.0 °F 33% 29.55 in 10.0 mi WNW 11.5 mph 25.3 mph N/A   Scattered Clouds
1:53 PM 57.9 °F - 21.0 °F 24% 29.55 in 10.0 mi West 13.8 mph 24.2 mph N/A   Mostly Cloudy
2:53 PM 52.0 °F - 19.9 °F 28% 29.58 in 10.0 mi West 13.8 mph 24.2 mph N/A   Mostly Cloudy
3:53 PM 45.0 °F 37.6 °F 23.0 °F 42% 29.65 in 10.0 mi WNW 17.3 mph 27.6 mph N/A   Overcast
4:53 PM 45.0 °F 38.9 °F 21.9 °F 40% 29.69 in 10.0 mi WNW 12.7 mph 20.7 mph N/A   Scattered Clouds
5:53 PM 41.0 °F 34.7 °F 24.1 °F 51% 29.74 in 10.0 mi North 10.4 mph - N/A   Clear
6:53 PM 37.9 °F 32.1 °F 23.0 °F 55% 29.78 in 10.0 mi NW 8.1 mph 17.3 mph N/A   Clear
7:53 PM 37.0 °F 30.4 °F 21.0 °F 52% 29.80 in 10.0 mi NNW 9.2 mph 17.3 mph N/A   Clear
8:53 PM 34.0 °F 27.2 °F 21.0 °F 59% 29.81 in 10.0 mi NW 8.1 mph 27.6 mph N/A   Clear
9:53 PM 30.9 °F 19.8 °F 16.0 °F 54% 29.84 in 10.0 mi WNW 16.1 mph 23.0 mph N/A   Clear
10:53 PM 28.0 °F 18.6 °F 14.0 °F 56% 29.85 in 10.0 mi North 10.4 mph - N/A   Clear
11:53 PM 27.0 °F 19.5 °F 12.0 °F 53% 29.87 in 10.0 mi NNW 6.9 mph - N/A   Clear